Stündliche Wetter Holmy

Heute, 21 Juni, Montag

Zeit Temperatur Niederschläge Wind Luftdruck Luftfeuchtigkeit
00:00 +19°C° 0 mm 2 m/S 748 mmHg 85%
01:00 +19°C° 0 mm 2 m/S 748 mmHg 86%
02:00 +19°C° 0 mm 2 m/S 748 mmHg 88%
03:00 +19°C° 0 mm 2 m/S 748 mmHg 88%
04:00 +19°C° 0 mm 2 m/S 748 mmHg 88%
05:00 +19°C° 0 mm 2 m/S 747 mmHg 88%
06:00 +21°C° 0 mm 3 m/S 747 mmHg 83%
07:00 +22°C° 0 mm 4 m/S 747 mmHg 78%
08:00 +23°C° 0 mm 4 m/S 747 mmHg 73%
09:00 +26°C° 0 mm 4 m/S 747 mmHg 68%
10:00 +27°C° 0 mm 5 m/S 747 mmHg 63%
11:00 +28°C° 0 mm 5 m/S 747 mmHg 58%
12:00 +28°C° 0 mm 5 m/S 747 mmHg 59%
13:00 +29°C° 0 mm 5 m/S 747 mmHg 59%
14:00 +29°C° 0 mm 5 m/S 746 mmHg 59%
15:00 +29°C° 0 mm 5 m/S 746 mmHg 63%
16:00 +29°C° 0 mm 4 m/S 746 mmHg 66%
17:00 +28°C° 0 mm 4 m/S 746 mmHg 69%
18:00 +27°C° 0 mm 4 m/S 746 mmHg 74%
19:00 +26°C° 0 mm 4 m/S 746 mmHg 79%
20:00 +25°C° 0 mm 4 m/S 746 mmHg 83%
21:00 +23°C° 0 mm 4 m/S 746 mmHg 86%
22:00 +22°C° 0 mm 4 m/S 746 mmHg 88%
23:00 +21°C° 0 mm 4 m/S 746 mmHg 90%

Morgen, 22 Juni, Dienstag

Zeit Temperatur Niederschläge Wind Luftdruck Luftfeuchtigkeit
00:00 +20°C° 0 mm 3 m/S 746 mmHg 92%
01:00 +20°C° 0 mm 3 m/S 746 mmHg 94%
02:00 +20°C° 0 mm 3 m/S 746 mmHg 96%
03:00 +20°C° 0 mm 3 m/S 746 mmHg 95%
04:00 +20°C° 0 mm 3 m/S 746 mmHg 94%
05:00 +20°C° 0 mm 3 m/S 746 mmHg 93%
06:00 +21°C° 0 mm 3 m/S 747 mmHg 87%
07:00 +23°C° 0 mm 4 m/S 747 mmHg 80%
08:00 +25°C° 0 mm 5 m/S 747 mmHg 74%
09:00 +26°C° 0 mm 5 m/S 747 mmHg 68%
10:00 +28°C° 0 mm 5 m/S 747 mmHg 62%
11:00 +29°C° 0 mm 5 m/S 747 mmHg 56%
12:00 +30°C° 0 mm 5 m/S 747 mmHg 54%
13:00 +32°C° 0 mm 5 m/S 747 mmHg 52%
14:00 +32°C° 0 mm 4 m/S 747 mmHg 49%
15:00 +32°C° 0 mm 4 m/S 747 mmHg 53%
16:00 +32°C° 0 mm 4 m/S 747 mmHg 57%
17:00 +32°C° 0 mm 4 m/S 747 mmHg 61%
18:00 +29°C° 0 mm 4 m/S 747 mmHg 68%
19:00 +27°C° 0 mm 3 m/S 747 mmHg 75%
20:00 +25°C° 0 mm 3 m/S 747 mmHg 82%
21:00 +24°C° 0 mm 3 m/S 747 mmHg 86%
22:00 +22°C° 0 mm 3 m/S 747 mmHg 89%
23:00 +21°C° 0 mm 3 m/S 747 mmHg 92%

übermorgen, 23 Juni, Mittwoch

Zeit Temperatur Niederschläge Wind Luftdruck Luftfeuchtigkeit
00:00 +20°C° 0 mm 3 m/S 747 mmHg 92%
01:00 +20°C° 0 mm 3 m/S 747 mmHg 93%
02:00 +20°C° 0 mm 2 m/S 748 mmHg 94%
03:00 +20°C° 0 mm 2 m/S 748 mmHg 93%
04:00 +20°C° 0 mm 2 m/S 748 mmHg 93%
05:00 +20°C° 0 mm 2 m/S 748 mmHg 92%
06:00 +22°C° 0 mm 3 m/S 748 mmHg 86%
07:00 +25°C° 0 mm 3 m/S 748 mmHg 80%
08:00 +27°C° 0 mm 4 m/S 748 mmHg 73%
09:00 +28°C° 0 mm 4 m/S 748 mmHg 69%
10:00 +29°C° 0 mm 4 m/S 748 mmHg 64%
11:00 +32°C° 0 mm 4 m/S 748 mmHg 59%
12:00 +33°C° 0 mm 4 m/S 748 mmHg 56%
13:00 +33°C° 0 mm 4 m/S 748 mmHg 53%
14:00 +34°C° 0 mm 4 m/S 748 mmHg 50%
15:00 +34°C° 0 mm 4 m/S 748 mmHg 53%
16:00 +33°C° 0 mm 4 m/S 748 mmHg 56%
17:00 +33°C° 0 mm 3 m/S 748 mmHg 60%
18:00 +30°C° 0 mm 3 m/S 748 mmHg 66%
19:00 +28°C° 0 mm 3 m/S 748 mmHg 72%
20:00 +27°C° 0 mm 3 m/S 748 mmHg 78%
21:00 +26°C° 0 mm 3 m/S 748 mmHg 81%
22:00 +25°C° 0 mm 3 m/S 748 mmHg 84%
23:00 +24°C° 0 mm 3 m/S 748 mmHg 87%

24 Juni, Donnerstag

Zeit Temperatur Niederschläge Wind Luftdruck Luftfeuchtigkeit
00:00 +23°C° 0 mm 2 m/S 748 mmHg 89%
01:00 +23°C° 0 mm 2 m/S 748 mmHg 90%
02:00 +23°C° 0 mm 2 m/S 748 mmHg 92%
03:00 +23°C° 0 mm 2 m/S 748 mmHg 92%
04:00 +23°C° 0 mm 2 m/S 748 mmHg 92%
05:00 +23°C° 0 mm 2 m/S 748 mmHg 92%
06:00 +24°C° 0 mm 3 m/S 748 mmHg 86%
07:00 +26°C° 0 mm 3 m/S 748 mmHg 81%
08:00 +28°C° 0 mm 3 m/S 748 mmHg 75%
09:00 +29°C° 0 mm 3 m/S 748 mmHg 70%
10:00 +30°C° 0 mm 3 m/S 748 mmHg 64%
11:00 +31°C° 0 mm 3 m/S 748 mmHg 59%
12:00 +33°C° 0 mm 3 m/S 748 mmHg 56%
13:00 +33°C° 0 mm 3 m/S 748 mmHg 52%
14:00 +34°C° 0 mm 3 m/S 748 mmHg 49%
15:00 +33°C° 0 mm 3 m/S 748 mmHg 53%
16:00 +33°C° 0 mm 3 m/S 748 mmHg 57%
17:00 +31°C° 0 mm 3 m/S 747 mmHg 61%
18:00 +29°C° 0 mm 3 m/S 747 mmHg 66%
19:00 +27°C° 0 mm 3 m/S 747 mmHg 70%
20:00 +25°C° 0 mm 3 m/S 747 mmHg 75%
21:00 +24°C° 0.7 mm 2 m/S 747 mmHg 78%
22:00 +23°C° 0.7 mm 2 m/S 747 mmHg 82%
23:00 +21°C° 0.7 mm 2 m/S 748 mmHg 85%

25 Juni, Freitag

Zeit Temperatur Niederschläge Wind Luftdruck Luftfeuchtigkeit
00:00 +21°C° 0.4 mm 2 m/S 747 mmHg 86%
01:00 +21°C° 0.4 mm 2 m/S 747 mmHg 88%
02:00 +21°C° 0.4 mm 1 m/S 747 mmHg 89%
03:00 +21°C° 0.1 mm 2 m/S 747 mmHg 90%
04:00 +21°C° 0.1 mm 2 m/S 747 mmHg 91%
05:00 +21°C° 0.1 mm 2 m/S 747 mmHg 92%
06:00 +23°C° 0 mm 2 m/S 747 mmHg 89%
07:00 +25°C° 0 mm 2 m/S 746 mmHg 86%
08:00 +26°C° 0 mm 2 m/S 746 mmHg 83%
09:00 +28°C° 0 mm 3 m/S 746 mmHg 74%
10:00 +29°C° 0 mm 3 m/S 747 mmHg 65%
11:00 +31°C° 0 mm 3 m/S 747 mmHg 55%
12:00 +33°C° 0 mm 3 m/S 747 mmHg 53%
13:00 +33°C° 0 mm 3 m/S 746 mmHg 50%
14:00 +33°C° 0 mm 3 m/S 746 mmHg 47%
15:00 +33°C° 0 mm 3 m/S 746 mmHg 51%
16:00 +33°C° 0 mm 3 m/S 745 mmHg 55%
17:00 +32°C° 0 mm 2 m/S 745 mmHg 59%
18:00 +30°C° 0.1 mm 2 m/S 745 mmHg 64%
19:00 +29°C° 0.1 mm 2 m/S 745 mmHg 69%
20:00 +27°C° 0.1 mm 2 m/S 744 mmHg 74%
21:00 +26°C° 0.9 mm 1 m/S 744 mmHg 77%
22:00 +24°C° 0.9 mm 1 m/S 744 mmHg 79%
23:00 +23°C° 0.9 mm 1 m/S 744 mmHg 82%

26 Juni, Samstag

Zeit Temperatur Niederschläge Wind Luftdruck Luftfeuchtigkeit
00:00 +21°C° 0.3 mm 2 m/S 744 mmHg 84%
01:00 +21°C° 0.3 mm 2 m/S 744 mmHg 87%
02:00 +21°C° 0.3 mm 2 m/S 744 mmHg 89%
03:00 +21°C° 0 mm 2 m/S 743 mmHg 90%
04:00 +21°C° 0 mm 2 m/S 743 mmHg 91%
05:00 +21°C° 0 mm 2 m/S 743 mmHg 92%
06:00 +22°C° 0 mm 3 m/S 743 mmHg 87%
07:00 +25°C° 0 mm 3 m/S 744 mmHg 81%
08:00 +26°C° 0 mm 3 m/S 744 mmHg 76%
09:00 +27°C° 0 mm 3 m/S 744 mmHg 71%
10:00 +28°C° 0 mm 3 m/S 744 mmHg 67%
11:00 +29°C° 0 mm 2 m/S 744 mmHg 63%
12:00 +30°C° 0 mm 3 m/S 744 mmHg 60%
13:00 +30°C° 0 mm 3 m/S 743 mmHg 58%
14:00 +31°C° 0 mm 3 m/S 743 mmHg 55%
15:00 +31°C° 0 mm 3 m/S 743 mmHg 57%
16:00 +31°C° 0 mm 2 m/S 742 mmHg 58%
17:00 +30°C° 0 mm 2 m/S 742 mmHg 60%
18:00 +28°C° 1 mm 3 m/S 742 mmHg 70%
19:00 +25°C° 1 mm 3 m/S 742 mmHg 81%
20:00 +21°C° 1 mm 4 m/S 742 mmHg 91%
21:00 +21°C° 0.9 mm 3 m/S 742 mmHg 93%
22:00 +20°C° 0.9 mm 3 m/S 742 mmHg 94%
23:00 +20°C° 0.9 mm 3 m/S 742 mmHg 96%
Mehr zeigen

Wir brauchen deine Erlaubnis

Meteoprog und unser Service Anbieter werden persönliche Daten aufbewahren, so wie Cookies, Geräte Bezeichnung oder ähnliche Technologien von deinem Gerät und Prozess, so wie Persönliche Daten Inhalte und Werbungen, genauso wie social Media und den Verkehr zu analysieren.

  • Aufbewahrung und/oder Zugang zu deiner Geräte Informationen.

    Cookies, Geräte Bezeichnung oder andere Informationen, können aufbewahrt oder Zugang zu deinem Gerät erhalten, für den Grund, der oben angegeben wird.

  • Personalisierte Werbung und Inhalte, Messungen, Einblick in das Publikum und Produkt Entwicklung.

    Werbungen und Inhalte können personalisiert werden, basierend auf ein Profil. Mehr Daten können besser personalisierte Werbungen und Inhalte hinzufügen. Werbung und Inhalte können gezeigt und gemessen werden. Einblicke über das Publikum, welche die Werbung gesehen haben und den Inhalt, können abgeleitet werden. So wie Daten können genutzt werden, um es zu verbessern oder die Benutzer Erfahrung zu verbessern das System und die Software.

Wenn du “Ich stimme zu” klickst, erlaubst du uns, die Cookies zu benutzen die Geräte Bezeichnung, den Web oder ähnliche Technologien zu benutzen. Deine Settings, können in deinem Gerät bei deinem Browser geändert werden.

Für den bestimmten Zweck, berechtigten Interessen beruhen darauf, mehr als auf den Inhalt. Du kannst mehr darüber in unseren Privaten und Cookie Politik lesen.